owner,sensor,date,latitude,longitude,vertical_datum,wind_speed,wind_to_direction,wind_speed_of_gust,qcFlag 
COMPS,ioos:station:USF.COMPS:SHP:1,2019-11-01T00:54:00,30.0600,-84.2910,10.0,5.11,350.49,8.13,'11111222,11111222,11111222' 
COMPS,ioos:station:USF.COMPS:SHP:1,2019-11-01T01:54:00,30.0600,-84.2910,10.0,6.22,353.66,9.4,'11111222,11111222,11111222' 
COMPS,ioos:station:USF.COMPS:SHP:1,2019-11-01T02:54:00,30.0600,-84.2910,10.0,5.11,2.48,8.52,'11111222,11111222,11111222' 
COMPS,ioos:station:USF.COMPS:SHP:1,2019-11-01T03:54:00,30.0600,-84.2910,10.0,3.73,358.96,5.68,'11111222,11111222,11111222' 
COMPS,ioos:station:USF.COMPS:SHP:1,2019-11-01T04:54:00,30.0600,-84.2910,10.0,5.05,356.38,7.25,'11111222,11111222,11111222' 
COMPS,ioos:station:USF.COMPS:SHP:1,2019-11-01T05:54:00,30.0600,-84.2910,10.0,4.43,352.55,6.76,'11111222,11111222,11111222' 
COMPS,ioos:station:USF.COMPS:SHP:1,2019-11-01T06:54:00,30.0600,-84.2910,10.0,4.91,359.85,7.25,'11111222,11144222,11111222' 
COMPS,ioos:station:USF.COMPS:SHP:1,2019-11-01T07:54:00,30.0600,-84.2910,10.0,4.17,357.69,6.27,'11111222,11111222,11111222' 
COMPS,ioos:station:USF.COMPS:SHP:1,2019-11-01T08:54:00,30.0600,-84.2910,10.0,4.06,359.61,6.17,'11111222,11144222,11111222' 
COMPS,ioos:station:USF.COMPS:SHP:1,2019-11-01T09:54:00,30.0600,-84.2910,10.0,3.43,6.55,5.29,'11111222,11111222,11111222' 
COMPS,ioos:station:USF.COMPS:SHP:1,2019-11-01T10:54:00,30.0600,-84.2910,10.0,4.07,3.68,5.48,'11111222,11111222,11111222' 
COMPS,ioos:station:USF.COMPS:SHP:1,2019-11-01T11:54:00,30.0600,-84.2910,10.0,3.51,0.62,5.58,'11111222,11111222,11111222' 
COMPS,ioos:station:USF.COMPS:SHP:1,2019-11-01T12:54:00,30.0600,-84.2910,10.0,5.56,2.13,7.44,'11111222,11111222,11111222' 
COMPS,ioos:station:USF.COMPS:SHP:1,2019-11-01T13:54:00,30.0600,-84.2910,10.0,6.06,8.4,9.11,'11111222,11111222,11111222' 
COMPS,ioos:station:USF.COMPS:SHP:1,2019-11-01T14:54:00,30.0600,-84.2910,10.0,4.72,20.37,7.44,'11111222,11111222,11111222' 
COMPS,ioos:station:USF.COMPS:SHP:1,2019-11-01T15:54:00,30.0600,-84.2910,10.0,4.03,29.88,5.97,'11111222,11111222,11111222' 
COMPS,ioos:station:USF.COMPS:SHP:1,2019-11-01T16:54:00,30.0600,-84.2910,10.0,3.61,24.99,5.29,'11111222,11111222,11111222' 
COMPS,ioos:station:USF.COMPS:SHP:1,2019-11-01T17:54:00,30.0600,-84.2910,10.0,3.55,26.1,5.78,'11111222,11111222,11111222' 
COMPS,ioos:station:USF.COMPS:SHP:1,2019-11-01T18:54:00,30.0600,-84.2910,10.0,2.42,26.51,4.01,'11111222,11111222,11111222' 
COMPS,ioos:station:USF.COMPS:SHP:1,2019-11-01T19:54:00,30.0600,-84.2910,10.0,3.93,3.9,5.58,'11111222,11111222,11111222' 
COMPS,ioos:station:USF.COMPS:SHP:1,2019-11-01T20:54:00,30.0600,-84.2910,10.0,2.55,2.18,4.99,'11111222,11111222,11111222' 
COMPS,ioos:station:USF.COMPS:SHP:1,2019-11-01T21:54:00,30.0600,-84.2910,10.0,2.66,30.85,5.19,'11111222,11111222,11111222' 
COMPS,ioos:station:USF.COMPS:SHP:1,2019-11-01T22:54:00,30.0600,-84.2910,10.0,1.79,16.96,2.64,'11111222,11111222,11111222' 
COMPS,ioos:station:USF.COMPS:SHP:1,2019-11-01T23:54:00,30.0600,-84.2910,10.0,1.71,9.65,2.35,'11111222,11111222,11111222' 
COMPS,ioos:station:USF.COMPS:SHP:1,2019-11-02T00:54:00,30.0600,-84.2910,10.0,1.69,8.08,2.74,'11111222,11111222,11111222' 
COMPS,ioos:station:USF.COMPS:SHP:1,2019-11-02T01:54:00,30.0600,-84.2910,10.0,2.03,7.2,2.94,'11111222,11111222,11111222' 
COMPS,ioos:station:USF.COMPS:SHP:1,2019-11-02T02:54:00,30.0600,-84.2910,10.0,2.54,12.17,3.52,'11111222,11111222,11111222' 
COMPS,ioos:station:USF.COMPS:SHP:1,2019-11-02T03:54:00,30.0600,-84.2910,10.0,2.89,11.97,3.92,'11111222,11111222,11111222' 
COMPS,ioos:station:USF.COMPS:SHP:1,2019-11-02T04:54:00,30.0600,-84.2910,10.0,3.09,13.26,3.82,'11111222,11111222,11111222' 
COMPS,ioos:station:USF.COMPS:SHP:1,2019-11-02T05:54:00,30.0600,-84.2910,10.0,3.19,12.88,4.41,'11111222,11111222,11111222' 
COMPS,ioos:station:USF.COMPS:SHP:1,2019-11-02T06:54:00,30.0600,-84.2910,10.0,3.41,13.44,5.09,'11111222,11111222,11111222' 
COMPS,ioos:station:USF.COMPS:SHP:1,2019-11-02T07:54:00,30.0600,-84.2910,10.0,3.22,7.05,4.21,'11111222,11111222,11111222' 
COMPS,ioos:station:USF.COMPS:SHP:1,2019-11-02T08:54:00,30.0600,-84.2910,10.0,2.76,13.27,3.72,'11111222,11111222,11111222' 
COMPS,ioos:station:USF.COMPS:SHP:1,2019-11-02T09:54:00,30.0600,-84.2910,10.0,3.15,8.85,4.31,'11111222,11111222,11111222' 
COMPS,ioos:station:USF.COMPS:SHP:1,2019-11-02T10:54:00,30.0600,-84.2910,10.0,2.39,11.79,3.23,'11111222,11111222,11111222' 
COMPS,ioos:station:USF.COMPS:SHP:1,2019-11-02T11:54:00,30.0600,-84.2910,10.0,3.01,5.15,4.41,'11111222,11111222,11111222' 
COMPS,ioos:station:USF.COMPS:SHP:1,2019-11-02T12:54:00,30.0600,-84.2910,10.0,3.22,5.42,4.21,'11111222,11111222,11111222' 
COMPS,ioos:station:USF.COMPS:SHP:1,2019-11-02T13:54:00,30.0600,-84.2910,10.0,2.25,13.76,2.84,'11111222,11111222,11111222' 
COMPS,ioos:station:USF.COMPS:SHP:1,2019-11-02T14:54:00,30.0600,-84.2910,10.0,3.55,18.11,5.29,'11111222,11111222,11111222' 
COMPS,ioos:station:USF.COMPS:SHP:1,2019-11-02T15:54:00,30.0600,-84.2910,10.0,3.68,4.68,5.09,'11111222,11111222,11111222' 
COMPS,ioos:station:USF.COMPS:SHP:1,2019-11-02T16:54:00,30.0600,-84.2910,10.0,3.47,354.02,5.87,'11111222,11111222,11111222' 
COMPS,ioos:station:USF.COMPS:SHP:1,2019-11-02T17:54:00,30.0600,-84.2910,10.0,4.46,342.58,7.25,'11111222,11111222,11111222' 
COMPS,ioos:station:USF.COMPS:SHP:1,2019-11-02T18:54:00,30.0600,-84.2910,10.0,3.99,351.78,6.66,'11111222,11111222,11111222' 
COMPS,ioos:station:USF.COMPS:SHP:1,2019-11-02T19:54:00,30.0600,-84.2910,10.0,3.77,0.13,5.48,'11111222,11111222,11111222' 
COMPS,ioos:station:USF.COMPS:SHP:1,2019-11-02T20:54:00,30.0600,-84.2910,10.0,3.21,353.68,5.87,'11111222,11111222,11111222' 
COMPS,ioos:station:USF.COMPS:SHP:1,2019-11-02T21:54:00,30.0600,-84.2910,10.0,2.94,3.87,4.41,'11111222,11111222,11111222' 
COMPS,ioos:station:USF.COMPS:SHP:1,2019-11-02T22:54:00,30.0600,-84.2910,10.0,2.8,354.5,4.9,'11111222,11111222,11111222' 
COMPS,ioos:station:USF.COMPS:SHP:1,2019-11-02T23:54:00,30.0600,-84.2910,10.0,2.77,356.34,3.92,'11111222,11111222,11111222' 
COMPS,ioos:station:USF.COMPS:SHP:1,2019-11-03T00:54:00,30.0600,-84.2910,10.0,2.03,342.51,3.62,'11111222,11111222,11111222' 
COMPS,ioos:station:USF.COMPS:SHP:1,2019-11-03T01:54:00,30.0600,-84.2910,10.0,2.9,354.04,4.31,'11111222,11111222,11111222' 
COMPS,ioos:station:USF.COMPS:SHP:1,2019-11-03T02:54:00,30.0600,-84.2910,10.0,3.34,356.28,4.41,'11111222,11111222,11111222' 
COMPS,ioos:station:USF.COMPS:SHP:1,2019-11-03T03:54:00,30.0600,-84.2910,10.0,3.27,357.5,4.9,'11111222,11111222,11111222' 
COMPS,ioos:station:USF.COMPS:SHP:1,2019-11-03T04:54:00,30.0600,-84.2910,10.0,1.88,355.16,2.54,'11111222,11111222,11111222' 
COMPS,ioos:station:USF.COMPS:SHP:1,2019-11-03T05:54:00,30.0600,-84.2910,10.0,2.12,351.38,3.23,'11111222,11111222,11111222' 
COMPS,ioos:station:USF.COMPS:SHP:1,2019-11-03T06:54:00,30.0600,-84.2910,10.0,1.98,356.75,2.94,'11111222,11111222,11111222' 
COMPS,ioos:station:USF.COMPS:SHP:1,2019-11-03T07:54:00,30.0600,-84.2910,10.0,2.06,359.92,2.84,'11111222,11144222,11111222' 
COMPS,ioos:station:USF.COMPS:SHP:1,2019-11-03T08:54:00,30.0600,-84.2910,10.0,2.39,3.08,4.11,'11111222,11111222,11111222' 
COMPS,ioos:station:USF.COMPS:SHP:1,2019-11-03T09:54:00,30.0600,-84.2910,10.0,2.44,8.01,3.62,'11111222,11111222,11111222' 
COMPS,ioos:station:USF.COMPS:SHP:1,2019-11-03T10:54:00,30.0600,-84.2910,10.0,3.35,11.59,4.5,'11111222,11111222,11111222' 
COMPS,ioos:station:USF.COMPS:SHP:1,2019-11-03T11:54:00,30.0600,-84.2910,10.0,3.34,7.14,4.6,'11111222,11111222,11111222' 
COMPS,ioos:station:USF.COMPS:SHP:1,2019-11-03T12:54:00,30.0600,-84.2910,10.0,3.85,14.94,6.37,'11111222,11111222,11111222' 
COMPS,ioos:station:USF.COMPS:SHP:1,2019-11-03T13:54:00,30.0600,-84.2910,10.0,3.26,23.51,6.07,'11111222,11111222,11111222' 
COMPS,ioos:station:USF.COMPS:SHP:1,2019-11-03T14:54:00,30.0600,-84.2910,10.0,2.97,22.02,4.99,'11111222,11111222,11111222' 
COMPS,ioos:station:USF.COMPS:SHP:1,2019-11-03T15:54:00,30.0600,-84.2910,10.0,3.25,16.39,4.6,'11111222,11111222,11111222' 
COMPS,ioos:station:USF.COMPS:SHP:1,2019-11-03T16:54:00,30.0600,-84.2910,10.0,1.94,35.27,4.11,'11111222,11111222,11111222' 
COMPS,ioos:station:USF.COMPS:SHP:1,2019-11-03T17:54:00,30.0600,-84.2910,10.0,3.3,18.51,4.5,'11111222,11111222,11111222' 
COMPS,ioos:station:USF.COMPS:SHP:1,2019-11-03T18:54:00,30.0600,-84.2910,10.0,1.22,59.02,2.84,'11111222,11111222,11111222' 
COMPS,ioos:station:USF.COMPS:SHP:1,2019-11-03T19:54:00,30.0600,-84.2910,10.0,1.49,63.59,3.13,'11111222,11111222,11111222' 
COMPS,ioos:station:USF.COMPS:SHP:1,2019-11-03T20:54:00,30.0600,-84.2910,10.0,1.72,55.9,3.72,'11111222,11111222,11111222' 
COMPS,ioos:station:USF.COMPS:SHP:1,2019-11-03T21:54:00,30.0600,-84.2910,10.0,3.56,9.05,4.9,'11111222,11111222,11111222' 
COMPS,ioos:station:USF.COMPS:SHP:1,2019-11-03T22:54:00,30.0600,-84.2910,10.0,2.0,6.83,2.54,'11111222,11111222,11111222' 
COMPS,ioos:station:USF.COMPS:SHP:1,2019-11-03T23:54:00,30.0600,-84.2910,10.0,2.1,12.35,2.74,'11111222,11111222,11111222' 
COMPS,ioos:station:USF.COMPS:SHP:1,2019-11-04T00:54:00,30.0600,-84.2910,10.0,2.57,14.91,3.33,'11111222,11111222,11111222' 
COMPS,ioos:station:USF.COMPS:SHP:1,2019-11-04T01:54:00,30.0600,-84.2910,10.0,1.88,22.44,3.13,'11111222,11111222,11111222' 
COMPS,ioos:station:USF.COMPS:SHP:1,2019-11-04T02:54:00,30.0600,-84.2910,10.0,2.64,33.51,5.58,'11111222,11111222,11111222' 
COMPS,ioos:station:USF.COMPS:SHP:1,2019-11-04T03:54:00,30.0600,-84.2910,10.0,2.4,41.27,3.92,'11111222,11111222,11111222' 
COMPS,ioos:station:USF.COMPS:SHP:1,2019-11-04T04:54:00,30.0600,-84.2910,10.0,1.42,53.63,3.52,'11111222,11111222,11111222' 
COMPS,ioos:station:USF.COMPS:SHP:1,2019-11-04T14:54:00,30.0600,-84.2910,10.0,1.43,51.19,2.84,'11111222,11111222,11111222' 
COMPS,ioos:station:USF.COMPS:SHP:1,2019-11-04T15:54:00,30.0600,-84.2910,10.0,1.92,64.23,3.62,'11111222,11111222,11111222' 
COMPS,ioos:station:USF.COMPS:SHP:1,2019-11-04T16:54:00,30.0600,-84.2910,10.0,2.61,91.6,4.7,'11111222,11111222,11111222' 
COMPS,ioos:station:USF.COMPS:SHP:1,2019-11-04T17:54:00,30.0600,-84.2910,10.0,1.67,85.6,3.43,'11111222,11111222,11111222' 
COMPS,ioos:station:USF.COMPS:SHP:1,2019-11-04T18:54:00,30.0600,-84.2910,10.0,1.89,100.34,3.03,'11111222,11111222,11111222' 
COMPS,ioos:station:USF.COMPS:SHP:1,2019-11-04T19:54:00,30.0600,-84.2910,10.0,0.79,57.24,1.96,'11111222,11111222,11111222' 
COMPS,ioos:station:USF.COMPS:SHP:1,2019-11-04T20:54:00,30.0600,-84.2910,10.0,1.64,32.02,3.13,'11111222,11111222,11111222' 
COMPS,ioos:station:USF.COMPS:SHP:1,2019-11-04T21:54:00,30.0600,-84.2910,10.0,1.79,29.36,2.74,'11111222,11111222,11111222' 
COMPS,ioos:station:USF.COMPS:SHP:1,2019-11-04T22:54:00,30.0600,-84.2910,10.0,1.42,28.91,2.15,'11111222,11111222,11111222' 
COMPS,ioos:station:USF.COMPS:SHP:1,2019-11-04T23:54:00,30.0600,-84.2910,10.0,0.95,50.47,2.15,'11111222,11111222,11111222' 
COMPS,ioos:station:USF.COMPS:SHP:1,2019-11-05T00:54:00,30.0600,-84.2910,10.0,1.65,24.33,2.54,'11111222,11111222,11111222' 
COMPS,ioos:station:USF.COMPS:SHP:1,2019-11-05T01:54:00,30.0600,-84.2910,10.0,1.15,58.76,2.84,'11111222,11111222,11111222' 
COMPS,ioos:station:USF.COMPS:SHP:1,2019-11-05T02:54:00,30.0600,-84.2910,10.0,2.51,82.2,4.21,'11111222,11111222,11111222' 
COMPS,ioos:station:USF.COMPS:SHP:1,2019-11-05T03:54:00,30.0600,-84.2910,10.0,2.28,75.55,4.31,'11111222,11111222,11111222' 
COMPS,ioos:station:USF.COMPS:SHP:1,2019-11-05T04:54:00,30.0600,-84.2910,10.0,1.86,78.51,4.31,'11111222,11111222,11111222' 
COMPS,ioos:station:USF.COMPS:SHP:1,2019-11-05T05:54:00,30.0600,-84.2910,10.0,1.74,72.58,3.52,'11111222,11111222,11111222' 
COMPS,ioos:station:USF.COMPS:SHP:1,2019-11-05T06:54:00,30.0600,-84.2910,10.0,1.18,63.56,2.54,'11111222,11111222,11111222' 
COMPS,ioos:station:USF.COMPS:SHP:1,2019-11-05T07:54:00,30.0600,-84.2910,10.0,1.74,30.62,2.84,'11111222,11111222,11111222' 
COMPS,ioos:station:USF.COMPS:SHP:1,2019-11-05T08:54:00,30.0600,-84.2910,10.0,2.46,35.46,4.01,'11111222,11111222,11111222' 
COMPS,ioos:station:USF.COMPS:SHP:1,2019-11-05T09:54:00,30.0600,-84.2910,10.0,1.6,45.91,2.64,'11111222,11111222,11111222' 
COMPS,ioos:station:USF.COMPS:SHP:1,2019-11-05T10:54:00,30.0600,-84.2910,10.0,2.33,45.21,3.62,'11111222,11111222,11111222' 
COMPS,ioos:station:USF.COMPS:SHP:1,2019-11-05T11:54:00,30.0600,-84.2910,10.0,1.11,52.86,2.54,'11111222,11111222,11111222' 
COMPS,ioos:station:USF.COMPS:SHP:1,2019-11-05T12:54:00,30.0600,-84.2910,10.0,0.93,38.83,1.66,'11111222,11111222,11111222' 
COMPS,ioos:station:USF.COMPS:SHP:1,2019-11-05T13:54:00,30.0600,-84.2910,10.0,1.39,44.08,2.45,'11111222,11111222,11111222' 
COMPS,ioos:station:USF.COMPS:SHP:1,2019-11-05T14:54:00,30.0600,-84.2910,10.0,1.87,41.67,3.03,'11111222,11111222,11111222' 
COMPS,ioos:station:USF.COMPS:SHP:1,2019-11-05T15:54:00,30.0600,-84.2910,10.0,1.15,47.93,2.54,'11111222,11111222,11111222' 
COMPS,ioos:station:USF.COMPS:SHP:1,2019-11-05T16:54:00,30.0600,-84.2910,10.0,1.02,101.49,1.47,'11111222,11111222,11111222' 
COMPS,ioos:station:USF.COMPS:SHP:1,2019-11-05T17:54:00,30.0600,-84.2910,10.0,1.96,125.5,2.64,'11111222,11111222,11111222' 
COMPS,ioos:station:USF.COMPS:SHP:1,2019-11-05T18:54:00,30.0600,-84.2910,10.0,2.98,137.44,3.52,'11111222,11111222,11111222' 
COMPS,ioos:station:USF.COMPS:SHP:1,2019-11-05T19:54:00,30.0600,-84.2910,10.0,3.92,142.71,4.6,'11111222,11111222,11111222' 
COMPS,ioos:station:USF.COMPS:SHP:1,2019-11-05T20:54:00,30.0600,-84.2910,10.0,3.62,153.55,4.31,'11111222,11111222,11111222' 
COMPS,ioos:station:USF.COMPS:SHP:1,2019-11-05T21:54:00,30.0600,-84.2910,10.0,0.18,326.38,0.58,'11111222,11111222,11111222' 
COMPS,ioos:station:USF.COMPS:SHP:1,2019-11-05T22:54:00,30.0600,-84.2910,10.0,1.5,309.04,2.15,'11111222,11111222,11111222' 
COMPS,ioos:station:USF.COMPS:SHP:1,2019-11-05T23:54:00,30.0600,-84.2910,10.0,0.4,31.07,0.78,'11111222,11111222,11111222' 
COMPS,ioos:station:USF.COMPS:SHP:1,2019-11-06T00:54:00,30.0600,-84.2910,10.0,0.77,26.97,1.27,'11111222,11111222,11111222' 
COMPS,ioos:station:USF.COMPS:SHP:1,2019-11-06T01:54:00,30.0600,-84.2910,10.0,1.78,11.1,2.15,'11111222,11111222,11111222' 
COMPS,ioos:station:USF.COMPS:SHP:1,2019-11-06T02:54:00,30.0600,-84.2910,10.0,1.15,7.32,1.86,'11111222,11111222,11111222' 
COMPS,ioos:station:USF.COMPS:SHP:1,2019-11-06T03:54:00,30.0600,-84.2910,10.0,2.07,2.34,2.94,'11111222,11111222,11111222' 
COMPS,ioos:station:USF.COMPS:SHP:1,2019-11-06T04:54:00,30.0600,-84.2910,10.0,1.51,26.86,1.96,'11111222,11111222,11111222' 
COMPS,ioos:station:USF.COMPS:SHP:1,2019-11-06T05:54:00,30.0600,-84.2910,10.0,2.12,25.37,4.11,'11111222,11111222,11111222' 
COMPS,ioos:station:USF.COMPS:SHP:1,2019-11-06T06:54:00,30.0600,-84.2910,10.0,2.33,14.61,3.13,'11111222,11111222,11111222' 
COMPS,ioos:station:USF.COMPS:SHP:1,2019-11-06T07:54:00,30.0600,-84.2910,10.0,2.19,25.55,3.13,'11111222,11111222,11111222' 
COMPS,ioos:station:USF.COMPS:SHP:1,2019-11-06T08:54:00,30.0600,-84.2910,10.0,3.05,27.26,4.8,'11111222,11111222,11111222' 
COMPS,ioos:station:USF.COMPS:SHP:1,2019-11-06T09:54:00,30.0600,-84.2910,10.0,2.57,32.23,4.99,'11111222,11111222,11111222' 
COMPS,ioos:station:USF.COMPS:SHP:1,2019-11-06T10:54:00,30.0600,-84.2910,10.0,2.38,38.41,4.31,'11111222,11111222,11111222' 
COMPS,ioos:station:USF.COMPS:SHP:1,2019-11-06T11:54:00,30.0600,-84.2910,10.0,3.03,31.14,5.29,'11111222,11111222,11111222' 
COMPS,ioos:station:USF.COMPS:SHP:1,2019-11-06T12:54:00,30.0600,-84.2910,10.0,2.33,24.35,3.43,'11111222,11111222,11111222' 
COMPS,ioos:station:USF.COMPS:SHP:1,2019-11-06T13:54:00,30.0600,-84.2910,10.0,2.31,33.62,3.72,'11111222,11111222,11111222' 
COMPS,ioos:station:USF.COMPS:SHP:1,2019-11-06T14:54:00,30.0600,-84.2910,10.0,2.3,57.14,4.6,'11111222,11111222,11111222' 
COMPS,ioos:station:USF.COMPS:SHP:1,2019-11-06T15:54:00,30.0600,-84.2910,10.0,1.28,68.64,3.03,'11111222,11111222,11111222' 
COMPS,ioos:station:USF.COMPS:SHP:1,2019-11-06T16:54:00,30.0600,-84.2910,10.0,1.32,107.64,2.35,'11111222,11111222,11111222' 
COMPS,ioos:station:USF.COMPS:SHP:1,2019-11-06T17:54:00,30.0600,-84.2910,10.0,1.57,99.75,2.64,'11111222,11111222,11111222' 
COMPS,ioos:station:USF.COMPS:SHP:1,2019-11-06T18:54:00,30.0600,-84.2910,10.0,1.8,89.94,2.94,'11111222,11111222,11111222' 
COMPS,ioos:station:USF.COMPS:SHP:1,2019-11-06T19:54:00,30.0600,-84.2910,10.0,1.68,105.94,3.03,'11111222,11111222,11111222' 
COMPS,ioos:station:USF.COMPS:SHP:1,2019-11-06T20:54:00,30.0600,-84.2910,10.0,2.25,94.94,3.92,'11111222,11111222,11111222' 
COMPS,ioos:station:USF.COMPS:SHP:1,2019-11-06T21:54:00,30.0600,-84.2910,10.0,1.8,53.76,3.52,'11111222,11111222,11111222' 
COMPS,ioos:station:USF.COMPS:SHP:1,2019-11-06T22:54:00,30.0600,-84.2910,10.0,1.21,47.08,2.54,'11111222,11111222,11111222' 
COMPS,ioos:station:USF.COMPS:SHP:1,2019-11-06T23:54:00,30.0600,-84.2910,10.0,1.4,44.4,2.45,'11111222,11111222,11111222' 
COMPS,ioos:station:USF.COMPS:SHP:1,2019-11-07T00:54:00,30.0600,-84.2910,10.0,1.99,69.28,4.31,'11111222,11111222,11111222' 
COMPS,ioos:station:USF.COMPS:SHP:1,2019-11-07T01:54:00,30.0600,-84.2910,10.0,2.17,72.53,4.31,'11111222,11111222,11111222' 
COMPS,ioos:station:USF.COMPS:SHP:1,2019-11-07T02:54:00,30.0600,-84.2910,10.0,2.19,73.65,4.5,'11111222,11111222,11111222' 
COMPS,ioos:station:USF.COMPS:SHP:1,2019-11-07T03:54:00,30.0600,-84.2910,10.0,2.43,74.03,4.8,'11111222,11111222,11111222' 
COMPS,ioos:station:USF.COMPS:SHP:1,2019-11-07T04:54:00,30.0600,-84.2910,10.0,3.06,75.7,5.19,'11111222,11111222,11111222' 
COMPS,ioos:station:USF.COMPS:SHP:1,2019-11-07T05:54:00,30.0600,-84.2910,10.0,1.83,60.98,4.6,'11111222,11111222,11111222' 
COMPS,ioos:station:USF.COMPS:SHP:1,2019-11-07T06:54:00,30.0600,-84.2910,10.0,1.78,75.38,4.5,'11111222,11111222,11111222' 
COMPS,ioos:station:USF.COMPS:SHP:1,2019-11-07T07:54:00,30.0600,-84.2910,10.0,1.51,49.3,3.43,'11111222,11111222,11111222' 
COMPS,ioos:station:USF.COMPS:SHP:1,2019-11-07T08:54:00,30.0600,-84.2910,10.0,2.12,64.99,5.09,'11111222,11111222,11111222' 
COMPS,ioos:station:USF.COMPS:SHP:1,2019-11-07T09:54:00,30.0600,-84.2910,10.0,1.7,63.66,4.31,'11111222,11111222,11111222' 
COMPS,ioos:station:USF.COMPS:SHP:1,2019-11-07T10:54:00,30.0600,-84.2910,10.0,1.8,65.81,4.21,'11111222,11111222,11111222' 
COMPS,ioos:station:USF.COMPS:SHP:1,2019-11-07T11:54:00,30.0600,-84.2910,10.0,1.54,73.88,3.52,'11111222,11111222,11111222' 
COMPS,ioos:station:USF.COMPS:SHP:1,2019-11-07T12:54:00,30.0600,-84.2910,10.0,1.31,74.92,3.72,'11111222,11111222,11111222' 
COMPS,ioos:station:USF.COMPS:SHP:1,2019-11-07T13:54:00,30.0600,-84.2910,10.0,1.99,102.65,3.13,'11111222,11111222,11111222' 
COMPS,ioos:station:USF.COMPS:SHP:1,2019-11-07T14:54:00,30.0600,-84.2910,10.0,1.61,102.12,3.52,'11111222,11111222,11111222' 
COMPS,ioos:station:USF.COMPS:SHP:1,2019-11-07T15:54:00,30.0600,-84.2910,10.0,1.65,128.16,2.15,'11111222,11111222,11111222' 
COMPS,ioos:station:USF.COMPS:SHP:1,2019-11-07T16:54:00,30.0600,-84.2910,10.0,1.26,168.84,1.76,'11111222,11111222,11111222' 
COMPS,ioos:station:USF.COMPS:SHP:1,2019-11-07T17:54:00,30.0600,-84.2910,10.0,1.13,185.36,1.96,'11111222,11111222,11111222' 
COMPS,ioos:station:USF.COMPS:SHP:1,2019-11-07T18:54:00,30.0600,-84.2910,10.0,3.22,202.45,3.52,'11111222,11111222,11111222' 
COMPS,ioos:station:USF.COMPS:SHP:1,2019-11-07T19:54:00,30.0600,-84.2910,10.0,1.8,240.24,2.25,'11111222,11111222,11111222' 
COMPS,ioos:station:USF.COMPS:SHP:1,2019-11-07T20:54:00,30.0600,-84.2910,10.0,1.96,183.83,3.23,'11111222,11111222,11111222' 
COMPS,ioos:station:USF.COMPS:SHP:1,2019-11-07T21:54:00,30.0600,-84.2910,10.0,1.16,220.3,1.37,'11111222,11111222,11111222' 
COMPS,ioos:station:USF.COMPS:SHP:1,2019-11-07T22:54:00,30.0600,-84.2910,10.0,0.99,197.04,1.47,'11111222,11111222,11111222' 
COMPS,ioos:station:USF.COMPS:SHP:1,2019-11-07T23:54:00,30.0600,-84.2910,10.0,1.45,174.42,2.05,'11111222,11111222,11111222' 
COMPS,ioos:station:USF.COMPS:SHP:1,2019-11-08T00:54:00,30.0600,-84.2910,10.0,0.51,243.67,0.88,'11111222,11111222,11111222' 
COMPS,ioos:station:USF.COMPS:SHP:1,2019-11-08T01:54:00,30.0600,-84.2910,10.0,1.54,201.85,2.05,'11111222,11111222,11111222' 
COMPS,ioos:station:USF.COMPS:SHP:1,2019-11-08T02:54:00,30.0600,-84.2910,10.0,2.03,223.04,2.35,'11111222,11111222,11111222' 
COMPS,ioos:station:USF.COMPS:SHP:1,2019-11-08T03:54:00,30.0600,-84.2910,10.0,1.7,273.36,2.15,'11111222,11111222,11111222' 
COMPS,ioos:station:USF.COMPS:SHP:1,2019-11-08T04:54:00,30.0600,-84.2910,10.0,0.92,302.1,1.37,'11111222,11111222,11111222' 
COMPS,ioos:station:USF.COMPS:SHP:1,2019-11-08T05:54:00,30.0600,-84.2910,10.0,1.29,235.45,1.66,'11111222,11111222,11111222' 
COMPS,ioos:station:USF.COMPS:SHP:1,2019-11-08T06:54:00,30.0600,-84.2910,10.0,1.73,257.84,2.25,'11111222,11111222,11111222' 
COMPS,ioos:station:USF.COMPS:SHP:1,2019-11-08T07:54:00,30.0600,-84.2910,10.0,0.65,309.56,0.97,'11111222,11111222,11111222' 
COMPS,ioos:station:USF.COMPS:SHP:1,2019-11-08T08:54:00,30.0600,-84.2910,10.0,0.98,297.66,1.37,'11111222,11111222,11111222' 
COMPS,ioos:station:USF.COMPS:SHP:1,2019-11-08T09:54:00,30.0600,-84.2910,10.0,1.83,350.26,2.45,'11111222,11111222,11111222' 
COMPS,ioos:station:USF.COMPS:SHP:1,2019-11-08T10:54:00,30.0600,-84.2910,10.0,2.63,353.77,3.82,'11111222,11111222,11111222' 
COMPS,ioos:station:USF.COMPS:SHP:1,2019-11-08T11:54:00,30.0600,-84.2910,10.0,5.82,10.85,7.74,'11111222,11111222,11111222' 
COMPS,ioos:station:USF.COMPS:SHP:1,2019-11-08T12:54:00,30.0600,-84.2910,10.0,3.85,13.09,6.56,'11111222,11111222,11111222' 
COMPS,ioos:station:USF.COMPS:SHP:1,2019-11-08T13:54:00,30.0600,-84.2910,10.0,3.75,30.91,7.15,'11111222,11111222,11111222' 
COMPS,ioos:station:USF.COMPS:SHP:1,2019-11-08T14:54:00,30.0600,-84.2910,10.0,3.46,22.48,6.66,'11111222,11111222,11111222' 
COMPS,ioos:station:USF.COMPS:SHP:1,2019-11-08T15:54:00,30.0600,-84.2910,10.0,4.55,36.38,7.15,'11111222,11111222,11111222' 
COMPS,ioos:station:USF.COMPS:SHP:1,2019-11-08T16:54:00,30.0600,-84.2910,10.0,4.27,22.01,6.46,'11111222,11111222,11111222' 
COMPS,ioos:station:USF.COMPS:SHP:1,2019-11-08T17:54:00,30.0600,-84.2910,10.0,4.47,4.29,6.17,'11111222,11111222,11111222' 
COMPS,ioos:station:USF.COMPS:SHP:1,2019-11-08T18:54:00,30.0600,-84.2910,10.0,3.95,34.21,6.37,'11111222,11111222,11111222' 
COMPS,ioos:station:USF.COMPS:SHP:1,2019-11-08T19:54:00,30.0600,-84.2910,10.0,2.31,31.4,4.5,'11111222,11111222,11111222' 
COMPS,ioos:station:USF.COMPS:SHP:1,2019-11-08T20:54:00,30.0600,-84.2910,10.0,2.65,22.13,6.76,'11111222,11111222,11111222' 
COMPS,ioos:station:USF.COMPS:SHP:1,2019-11-08T21:54:00,30.0600,-84.2910,10.0,1.65,28.65,3.43,'11111222,11111222,11111222' 
COMPS,ioos:station:USF.COMPS:SHP:1,2019-11-08T22:54:00,30.0600,-84.2910,10.0,2.31,352.61,2.94,'11111222,11111222,11111222' 
COMPS,ioos:station:USF.COMPS:SHP:1,2019-11-08T23:54:00,30.0600,-84.2910,10.0,2.8,12.71,4.21,'11111222,11111222,11111222' 
COMPS,ioos:station:USF.COMPS:SHP:1,2019-11-09T00:54:00,30.0600,-84.2910,10.0,2.41,28.41,5.19,'11111222,11111222,11111222' 
COMPS,ioos:station:USF.COMPS:SHP:1,2019-11-09T01:54:00,30.0600,-84.2910,10.0,2.66,44.95,6.17,'11111222,11111222,11111222' 
COMPS,ioos:station:USF.COMPS:SHP:1,2019-11-09T02:54:00,30.0600,-84.2910,10.0,3.08,19.17,4.99,'11111222,11111222,11111222' 
COMPS,ioos:station:USF.COMPS:SHP:1,2019-11-09T03:54:00,30.0600,-84.2910,10.0,2.61,63.95,6.17,'11111222,11111222,11111222' 
COMPS,ioos:station:USF.COMPS:SHP:1,2019-11-09T04:54:00,30.0600,-84.2910,10.0,3.07,74.38,6.95,'11111222,11111222,11111222' 
COMPS,ioos:station:USF.COMPS:SHP:1,2019-11-09T05:54:00,30.0600,-84.2910,10.0,3.26,26.02,4.8,'11111222,11111222,11111222' 
COMPS,ioos:station:USF.COMPS:SHP:1,2019-11-09T06:54:00,30.0600,-84.2910,10.0,3.01,33.37,4.99,'11111222,11111222,11111222' 
COMPS,ioos:station:USF.COMPS:SHP:1,2019-11-09T07:54:00,30.0600,-84.2910,10.0,2.63,39.52,5.58,'11111222,11111222,11111222' 
COMPS,ioos:station:USF.COMPS:SHP:1,2019-11-09T08:54:00,30.0600,-84.2910,10.0,3.61,20.51,5.68,'11111222,11111222,11111222' 
COMPS,ioos:station:USF.COMPS:SHP:1,2019-11-09T09:54:00,30.0600,-84.2910,10.0,3.57,13.61,4.9,'11111222,11111222,11111222' 
COMPS,ioos:station:USF.COMPS:SHP:1,2019-11-09T10:54:00,30.0600,-84.2910,10.0,4.41,12.07,5.87,'11111222,11111222,11111222' 